Flag for U.S.A. Weather past 2 weeks in Binghamton, New York, U.S.A.

Now
65 °F

Clear.


Feels Like: 65 °F
Forecast: 57 / 82 °F
Wind: 7 mph from Southwest

Location: Binghamton Regional Airport

Current Time: Jul 31, 2014 at 11:53:29 PM

Latest Report: Jul 31, 2014 at 10:53 PM


Visibility: 10 mi

Pressure: 30.13 "Hg

Humidity: 78%

Dew point: 58 °F

Location of BinghamtonLocation

Historic Weather in Binghamton — Graph

°F

Binghamton temperature yesterday

Maximum temperature yesterday: 69 °F (at 3:53 PM)
Minimum temperature yesterday: 51 °F (at 6:53 AM)
Average temperature yesterday: 61 °F

Past Weeks' High & Low Weather Summary

 TemperatureHumidityPressure
High84 °F (Jul 23, 1:53 PM)100% (Jul 28, 10:04 PM)30.27 "Hg (Jul 28, 10:04 PM)
Low50 °F (Jul 25, 6:53 AM)41% (Jul 18, 2:53 PM)29.50 "Hg (Jul 28, 12:53 PM)
Average66 °F74%30.00 "Hg
* Reported Jul 16 9:53 PM — Jul 31 9:53 PM, Binghamton, Weather by CustomWeather, © 2014

Note: Actual official high and low records may vary slightly from our data, if they occured in-between our weather recording intervals... More about our weather records

Advertising

Binghamton weather history for previous 24 hours

 ConditionsComfort  
Time TempWeatherWind HumidityBarometerVisibility
9:53 PM
Jul 31
66 °FClear.7 mph73%30.13 "Hg10 mi
8:53 PM66 °FSunny.6 mph73%30.11 "Hg10 mi
7:53 PM68 °FSunny.6 mph68%30.10 "Hg9 mi
6:53 PM71 °FSunny.7 mph57%30.09 "Hg10 mi
5:53 PM73 °FPassing clouds.13 mph51%30.08 "Hg10 mi
4:53 PM73 °FSunny.10 mph51%30.07 "Hg10 mi
3:53 PM73 °FPassing clouds.15 mph50%30.07 "Hg10 mi
2:53 PM73 °FPassing clouds.15 mph53%30.07 "Hg10 mi
1:53 PM70 °FPassing clouds.9 mph64%30.07 "Hg10 mi
12:53 PM66 °FMostly cloudy.7 mph75%30.08 "Hg10 mi
11:53 AM67 °FPartly sunny.9 mph73%30.07 "Hg10 mi
10:53 AM63 °FMostly cloudy.9 mph81%30.07 "Hg10 mi
9:53 AM62 °FPartly sunny.9 mph83%30.06 "Hg10 mi
9:01 AM61 °FScattered clouds.6 mph83%30.07 "Hg10 mi
7:53 AM57 °FScattered clouds.6 mph93%30.05 "Hg10 mi
6:53 AM55 °FOvercast.3 mph96%30.05 "Hg10 mi
5:53 AM55 °FOvercast.5 mph93%30.04 "Hg10 mi
4:53 AM55 °FPassing clouds.5 mph93%30.04 "Hg10 mi
3:53 AM56 °FClear.7 mph90%30.02 "Hg10 mi
2:53 AM56 °FClear.8 mph90%30.03 "Hg10 mi
1:53 AM57 °FClear.10 mph90%30.03 "Hg10 mi
12:53 AM57 °FClear.5 mph93%30.04 "Hg10 mi
11:53 PM
Jul 30
58 °FClear.5 mph90%30.04 "Hg10 mi
Weather by CustomWeather, © 2014

See weather overviewHow to use our weather pages